Visibility
15.0 15.0 15.0 15.0 15.0 15.0 15.0 15.0 15.0 15.0 15.0 15.0 15.0 15.0 15.0 15.0 15.0 13.7 13.1 14.9 9.3 8.9 3.7 4.6 15.0 15.0 15.0 15.0 4.6 4.0 15.0 15.0 15.0 15.0 15.0 15.0 15.0 15.0 15.0 15.0 15.0 15.0 15.0
15.0 15.0 15.0 15.0 15.0 15.0 15.0 15.0 15.0 15.0 15.0 15.0 15.0 15.0 15.0 15.0 15.0 15.0 15.0 15.0 9.7 5.8 6.7 15.0 15.0 15.0 15.0 15.0 9.3 12.4 15.0 15.0 15.0 15.0 9.2 15.0 15.0 15.0 15.0 12.7 8.7 15.0 15.0
15.0 15.0 15.0 15.0 15.0 15.0 15.0 15.0 15.0 15.0 15.0 15.0 15.0 11.7 15.0 15.0 11.3 8.7 11.8 4.9 10.8 6.7 5.6 4.5 15.0 13.1 15.0 15.0 15.0 15.0 15.0 15.0 7.8 13.6 15.0 15.0 15.0 15.0 15.0 11.9 15.0 7.3 7.9
15.0 15.0 15.0 15.0 15.0 15.0 15.0 15.0 15.0 15.0 15.0 15.0 15.0 15.0 14.3 15.0 15.0 15.0 9.3 9.1 3.1 9.6 15.0 13.9 3.9 5.1 4.5 15.0 15.0 15.0 15.0 15.0 7.3 9.4 15.0 15.0 15.0 15.0 15.0 14.9 12.8 6.8 7.5
15.0 15.0 15.0 15.0 15.0 15.0 15.0 15.0 15.0 7.2 15.0 15.0 15.0 15.0 15.0 15.0 15.0 15.0 15.0 15.0 15.0 15.0 3.8 3.6 2.7 5.0 2.4 6.0 13.8 15.0 15.0 15.0 14.4 4.9 15.0 15.0 15.0 14.8 15.0 15.0 8.7 15.0 7.7
15.0 15.0 15.0 15.0 15.0 15.0 15.0 15.0 15.0 15.0 15.0 4.9 14.9 10.7 15.0 15.0 15.0 15.0 15.0 15.0 15.0 15.0 15.0 12.8 3.0 3.4 2.3 5.7 3.2 15.0 14.7 14.9 6.4 8.8 15.0 15.0 15.0 15.0 15.0 14.9 6.0 6.2 4.4
15.0 15.0 15.0 15.0 15.0 15.0 15.0 15.0 15.0 15.0 15.0 14.1 13.7 8.8 8.0 15.0 15.0 15.0 15.0 15.0 15.0 15.0 15.0 15.0 15.0 15.0 6.0 4.2 15.0 11.5 4.6 6.9 15.0 14.5 11.5 15.0 13.4 7.7 8.5 15.0 4.8 15.0 11.0
15.0 15.0 15.0 15.0 15.0 15.0 15.0 15.0 15.0 15.0 15.0 15.0 11.5 9.6 15.0 15.0 15.0 15.0 15.0 15.0 15.0 15.0 15.0 15.0 15.0 15.0 15.0 15.0 10.4 9.3 15.0 15.0 15.0 15.0 15.0 15.0 7.2 9.2 7.9 6.4 6.1 6.4 6.6
15.0 15.0 15.0 15.0 15.0 15.0 15.0 15.0 15.0 15.0 15.0 15.0 9.5 13.6 13.5 15.0 15.0 15.0 12.8 6.2 6.2 6.3 6.6 5.5 10.6 15.0 15.0 15.0 15.0 6.6 7.8 10.5 9.5 15.0 15.0 15.0 13.2 15.0 5.2 13.2 7.1 1.3 0.1
15.0 15.0 15.0 15.0 15.0 15.0 15.0 15.0 15.0 15.0 15.0 15.0 15.0 15.0 15.0 15.0 15.0 15.0 15.0 15.0 15.0 9.9 15.0 15.0 15.0 15.0 15.0 15.0 5.6 5.2 7.0 15.0 6.2 13.6 15.0 1.7 1.5 15.0 0.5 7.8 7.6 7.2 8.8
15.0 15.0 15.0 15.0 15.0 15.0 15.0 15.0 15.0 14.9 15.0 15.0 15.0 15.0 15.0 15.0 15.0 15.0 15.0 15.0 14.2 15.0 15.0 15.0 15.0 15.0 15.0 15.0 12.2 4.6 15.0 15.0 8.2 12.4 15.0 15.0 15.0 15.0 15.0 15.0 15.0 15.0 2.1
15.0 15.0 15.0 15.0 15.0 15.0 15.0 15.0 15.0 15.0 15.0 11.6 15.0 15.0 15.0 15.0 15.0 7.9 6.9 2.3 2.5 0.1 5.6 15.0 15.0 15.0 15.0 15.0 0.1 9.3 15.0 15.0 10.8 15.0 15.0 15.0 15.0 15.0 15.0 15.0 15.0 15.0 15.0
15.0 15.0 15.0 15.0 15.0 15.0 15.0 15.0 15.0 7.2 14.6 15.0 2.4 10.0 8.7 15.0 15.0 14.9 3.1 0.2 0.2 0.0 0.1 0.2 3.7 0.1 0.0 0.0 0.1 0.1 0.1 14.0 15.0 10.9 7.6 15.0 11.4 15.0 15.0 15.0 15.0 15.0 15.0
15.0 15.0 15.0 15.0 15.0 15.0 15.0 15.0 15.0 10.9 15.0 1.7 0.1 0.1 0.1 15.0 11.8 12.0 12.6 0.3 14.1 1.2 0.2 0.2 1.1 0.3 0.1 9.4 0.0 0.0 0.1 13.0 15.0 1.4 1.6 14.2 15.0 15.0 15.0 15.0 15.0 15.0 0.8
15.0 15.0 15.0 15.0 15.0 15.0 15.0 15.0 15.0 15.0 10.4 0.1 0.1 0.2 0.0 0.0 6.3 0.5 0.1 0.0 0.1 0.1 0.0 0.5 0.7 2.5 0.1 0.0 0.0 0.0 0.6 12.7 4.6 2.9 8.4 14.9 15.0 11.5 15.0 15.0 15.0 15.0 15.0
15.0 15.0 15.0 15.0 15.0 15.0 15.0 15.0 15.0 15.0 15.0 15.0 10.6 13.1 13.0 10.5 8.6 15.0 1.9 0.0 0.0 0.1 0.0 0.1 0.1 0.1 0.1 0.1 0.0 0.1 0.2 15.0 3.4 4.8 5.3 15.0 15.0 15.0 15.0 13.8 13.8 15.0 15.0
15.0 15.0 15.0 15.0 15.0 15.0 15.0 15.0 15.0 15.0 15.0 15.0 15.0 15.0 14.8 13.6 3.6 8.9 15.0 0.1 0.0 0.0 0.1 15.0 14.5 13.0 8.4 14.4 14.7 14.9 6.0 6.5 3.7 6.7 8.8 15.0 15.0 15.0 2.6 5.9 5.9 5.2 15.0
15.0 15.0 15.0 15.0 15.0 15.0 15.0 15.0 15.0 15.0 15.0 15.0 15.0 15.0 15.0 15.0 15.0 12.2 12.7 13.2 15.0 14.0 0.1 0.2 9.0 5.1 15.0 13.5 13.7 15.0 9.1 4.1 3.0 2.7 4.4 5.8 6.7 7.9 15.0 5.2 6.1 5.0 5.3
15.0 15.0 15.0 15.0 15.0 15.0 15.0 15.0 15.0 15.0 15.0 15.0 15.0 15.0 15.0 15.0 15.0 15.0 11.5 2.8 0.5 3.5 3.3 9.8 7.6 0.5 1.7 15.0 13.2 10.4 2.5 7.5 4.5 1.9 5.0 5.9 15.0 15.0 15.0 5.8 4.6 8.5 4.4
15.0 15.0 15.0 15.0 15.0 15.0 15.0 15.0 15.0 15.0 15.0 15.0 15.0 15.0 15.0 15.0 15.0 15.0 15.0 14.9 3.9 12.4 3.0 2.8 13.8 5.0 0.1 0.0 3.1 12.4 1.1 3.3 6.5 3.0 14.6 7.7 14.4 13.3 7.9 15.0 7.2 8.5 12.9
15.0 15.0 15.0 15.0 15.0 15.0 15.0 15.0 15.0 15.0 15.0 15.0 15.0 15.0 15.0 15.0 15.0 15.0 15.0 15.0 7.7 2.3 0.9 3.1 2.4 5.5 15.0 0.2 0.1 0.0 0.2 8.4 5.8 6.9 14.7 8.1 5.7 4.5 7.7 4.0 2.7 5.3 7.0
15.0 15.0 15.0 15.0 15.0 15.0 15.0 15.0 15.0 15.0 15.0 15.0 15.0 15.0 15.0 15.0 15.0 15.0 15.0 15.0 15.0 15.0 15.0 13.9 7.7 1.7 0.8 0.9 0.6 0.1 0.1 0.1 0.1 1.2 9.2 4.6 3.2 10.2 3.1 2.0 3.6 5.3 10.2
15.0 15.0 15.0 15.0 15.0 15.0 15.0 15.0 15.0 15.0 15.0 15.0 15.0 15.0 15.0 15.0 15.0 15.0 15.0 15.0 15.0 15.0 15.0 15.0 15.0 15.0 8.8 3.1 9.5 1.1 0.1 0.0 0.0 0.1 0.1 0.9 13.8 6.1 7.8 6.3 12.4 9.9 15.0
15.0 15.0 15.0 15.0 15.0 15.0 15.0 15.0 15.0 15.0 15.0 15.0 15.0 15.0 15.0 15.0 15.0 15.0 15.0 15.0 15.0 15.0 15.0 15.0 15.0 15.0 15.0 15.0 15.0 4.5 5.6 1.1 2.8 0.1 0.0 0.1 0.1 4.0 5.3 10.4 13.0 4.5 15.0
15.0 15.0 15.0 15.0 15.0 15.0 15.0 15.0 15.0 15.0 15.0 15.0 15.0 15.0 15.0 15.0 15.0 15.0 15.0 15.0 15.0 15.0 15.0 15.0 15.0 15.0 15.0 15.0 15.0 15.0 15.0 6.4 4.5 0.1 8.3 1.8 0.1 0.1 4.9 4.9 4.1 4.5 6.5
15.0 15.0 15.0 15.0 15.0 15.0 15.0 15.0 15.0 15.0 15.0 15.0 15.0 15.0 15.0 15.0 15.0 15.0 15.0 15.0 15.0 15.0 15.0 15.0 15.0 15.0 15.0 15.0 15.0 15.0 15.0 15.0 15.0 4.1 10.2 15.0 2.2 2.6 0.5 3.8 5.6 4.6 7.8